Weather History for KUNO - May, 2012

Change the Weather History Date:

Saturday, May 12, 2012

  Actual Average Record
Temperature  
Mean Temperature 66 °F 64 °F  
Max Temperature 78 °F 76 °F 87 °F (2005)
Min Temperature 53 °F 53 °F 30 °F (1960)
Degree Days  
Heating Degree Days 0 3  
Month to date heating degree days 17 45  
Since 1 July heating degree days 3433 4307  
Cooling Degree Days 1 2  
Month to date cooling degree days 59 20  
Year to date cooling degree days 159 48  
Growing Degree Days 16 (Base 50)    
Moisture  
Dew Point 52 °F    
Average Humidity 66    
Maximum Humidity 93    
Minimum Humidity 38    
Precipitation  
Precipitation 0.00 in 0.16 in 1.68 in (1967)
Month to date precipitation 0.15 2.34  
Year to date precipitation 12.52 16.67  
Sea Level Pressure  
Sea Level Pressure 30.14 in    
Wind  
Wind Speed 3 mph (ENE)    
Max Wind Speed 13 mph    
Max Gust Speed 20 mph    
Visibility 10 miles    
Events      
T = Trace of Precipitation, MM = Missing Value Source: NWS Daily Summary

Daily Weather History Graph

Daily Weather History Graph

Search for Another Location

Airport or City:

Trip Planner

Search our weather history database for the weather conditions in past years. The results will help you decide how hot, cold, wet, or windy it might be!

Date:

Astronomy

May. 12, 2012 Rise Set
Actual Time 6:01 AM CDT 8:06 PM CDT
Civil Twilight 5:33 AM CDT 8:35 PM CDT
Nautical Twilight 4:58 AM CDT 9:10 PM CDT
Astronomical Twilight 4:20 AM CDT 9:48 PM CDT
Moon 1:23 AM CDT (5/12) 12:37 PM CDT (5/12)
Length of Visible Light 15h 02m
Length of Day
14h 04m
Waning Gibbous, 52% of the Moon is Illuminated
May 12
Waning Gibbous
May 12
Last Quarter
May 20
New
May 28
First Quarter
Jun 4
Full

Hourly Weather History & Observations

Time (CDT) Temp. Dew Point Humidity Pressure Visibility Wind Dir Wind Speed Gust Speed Precip Events Conditions
12:53 AM 57.9 °F 54.0 °F 87% 30.11 in 10.0 mi NE 3.5 mph - N/A   Scattered Clouds
1:53 AM 60.1 °F 53.1 °F 78% 30.11 in 10.0 mi Calm Calm - N/A   Mostly Cloudy
2:53 AM 60.1 °F 53.1 °F 78% 30.10 in 10.0 mi Calm Calm - N/A   Overcast
3:53 AM 57.9 °F 52.0 °F 81% 30.13 in 10.0 mi Calm Calm - N/A   Overcast
4:53 AM 57.9 °F 52.0 °F 81% 30.15 in 10.0 mi NNW 3.5 mph - N/A   Mostly Cloudy
5:53 AM 57.9 °F 51.1 °F 78% 30.16 in 10.0 mi NNE 6.9 mph - N/A   Mostly Cloudy
6:53 AM 57.9 °F 53.1 °F 84% 30.18 in 10.0 mi Calm Calm - N/A   Overcast
7:53 AM 60.1 °F 53.1 °F 78% 30.19 in 10.0 mi North 3.5 mph - N/A   Overcast
8:53 AM 63.0 °F 53.1 °F 70% 30.19 in 10.0 mi East 3.5 mph - N/A   Clear
9:53 AM 66.0 °F 53.1 °F 63% 30.17 in 10.0 mi East 3.5 mph - N/A   Clear
10:53 AM 71.1 °F 50.0 °F 47% 30.17 in 10.0 mi East 5.8 mph - N/A   Clear
11:53 AM 72.0 °F 51.1 °F 48% 30.17 in 10.0 mi Calm Calm - N/A   Partly Cloudy
12:53 PM 75.9 °F 50.0 °F 40% 30.14 in 10.0 mi NE 5.8 mph - N/A   Partly Cloudy
1:53 PM 75.9 °F 51.1 °F 42% 30.12 in 10.0 mi NE 3.5 mph - N/A   Scattered Clouds
2:53 PM 75.0 °F 50.0 °F 41% 30.10 in 10.0 mi Variable 6.9 mph - N/A   Mostly Cloudy
3:53 PM 75.0 °F 48.0 °F 38% 30.09 in 10.0 mi ENE 10.4 mph - N/A   Mostly Cloudy
4:53 PM 75.0 °F 48.0 °F 38% 30.09 in 10.0 mi ENE 6.9 mph - N/A   Mostly Cloudy
5:53 PM 72.0 °F 51.1 °F 48% 30.10 in 10.0 mi East 3.5 mph - N/A   Overcast
6:53 PM 71.1 °F 53.1 °F 53% 30.11 in 10.0 mi ESE 4.6 mph - N/A   Overcast
7:53 PM 68.0 °F 55.0 °F 63% 30.12 in 10.0 mi Calm Calm - N/A   Overcast
8:53 PM 66.9 °F 54.0 °F 63% 30.13 in 10.0 mi NE 4.6 mph - N/A   Overcast
9:53 PM 64.0 °F 55.0 °F 73% 30.14 in 10.0 mi Calm Calm - N/A   Mostly Cloudy
10:53 PM 57.9 °F 54.0 °F 87% 30.14 in 10.0 mi Calm Calm - N/A   Clear
11:53 PM 55.9 °F 54.0 °F 93% 30.14 in 10.0 mi Calm Calm - N/A   Clear